RH
12 11 11 13 14 16 17 18 15 16 18 12 12 12 18 20 22 25 28 29 27 25 23 24 32 37 36 30 17 24 18 16 14 14 15 16 17 19 22 27 30 30 27 24
14 14 16 17 18 17 12 9 14 16 14 16 18 19 26 25 27 29 32 30 21 13 13 15 27 35 41 35 30 25 18 16 18 21 22 24 30 34 37 37 34 24 20 18
17 18 18 16 12 9 12 16 19 21 15 16 24 25 32 31 35 38 35 32 22 12 14 19 28 36 40 39 30 25 20 21 28 33 40 38 31 38 37 29 18 11 14 15
13 11 11 9 10 16 18 22 19 16 14 22 25 30 30 31 33 30 34 36 24 17 29 30 32 34 53 60 58 65 68 49 45 47 46 25 17 17 16 12 7 10 13 11
20 14 14 17 19 18 19 16 14 11 24 30 46 48 33 32 22 25 35 42 39 27 33 37 54 61 59 51 48 53 49 48 47 46 42 21 12 11 9 6 6 8 6 19
14 12 11 13 13 16 16 12 9 33 40 81 64 36 23 29 24 23 35 43 45 42 41 44 52 54 30 26 34 38 38 34 29 25 22 16 14 11 9 6 5 5 6 13
11 10 10 11 14 16 11 8 28 76 90 89 58 36 18 20 23 15 20 21 30 34 33 30 27 24 27 28 24 25 29 29 23 18 14 12 9 8 8 6 5 5 6 8
18 26 14 18 16 11 9 13 21 54 90 74 32 32 33 20 13 21 20 21 20 21 21 27 32 32 31 28 25 20 18 18 20 14 7 6 5 5 6 6 5 6 6 10
10 29 11 9 9 10 18 12 21 20 55 75 27 30 26 20 15 29 32 32 30 22 14 13 14 17 19 17 15 13 12 11 10 8 7 6 5 4 6 5 5 6 6 10
9 9 16 11 9 11 12 20 29 53 84 82 47 38 28 20 33 29 24 24 20 25 35 27 17 14 14 13 12 11 10 9 9 10 9 6 5 5 5 6 6 7 7 10
14 17 23 18 17 16 21 21 24 25 52 91 90 42 27 18 21 21 23 20 31 56 64 63 53 30 16 16 13 11 10 9 9 8 7 6 5 5 6 6 8 8 8 9
19 21 21 31 30 34 26 21 23 39 72 46 77 28 14 17 18 25 25 20 35 54 60 65 67 61 47 19 15 10 9 9 8 8 8 6 5 5 6 7 8 9 9 9
32 35 35 50 45 35 22 19 21 41 69 57 70 28 16 17 23 31 29 29 39 48 44 57 63 63 57 52 33 20 16 14 13 11 9 8 8 6 6 6 7 8 10 10
42 44 40 39 38 42 40 40 43 37 60 43 34 29 33 36 41 33 28 36 39 39 39 60 67 68 66 65 60 46 38 19 14 13 12 10 9 9 8 7 7 7 8 9
55 57 62 61 59 58 57 55 61 59 48 53 34 40 41 44 45 31 28 30 35 41 47 69 70 67 69 68 65 65 52 38 23 19 14 12 12 11 9 9 9 8 8 8
82 72 76 76 67 59 53 43 38 47 54 54 45 42 46 40 39 36 49 65 56 59 66 67 72 70 68 55 60 62 66 63 52 34 30 28 15 11 12 11 10 10 10 10
98 96 86 74 72 67 57 43 40 45 44 50 54 49 55 51 48 60 61 61 62 68 72 74 72 62 59 52 55 58 61 65 64 60 56 48 37 30 16 11 11 11 11 11
99 100 94 80 74 82 58 56 50 58 55 54 59 59 50 54 51 62 81 73 78 76 68 66 63 55 51 49 53 62 65 64 60 60 59 57 54 40 29 23 16 14 13 12
68 88 88 84 88 65 52 54 36 47 56 61 64 66 65 56 66 75 75 90 92 76 58 61 60 54 51 49 47 48 54 64 68 73 74 69 57 48 35 27 23 19 16 16
60 66 82 94 93 91 61 57 65 65 66 64 64 73 77 83 80 70 68 57 60 63 64 62 57 54 53 52 51 53 57 62 61 60 62 71 91 90 94 76 59 28 18 18
62 68 72 85 98 77 53 56 62 70 71 76 94 95 88 78 78 73 74 66 65 63 67 62 62 62 61 60 57 57 58 58 58 58 61 57 55 65 79 83 54 40 37 35
61 62 72 90 99 87 54 67 65 65 79 94 94 86 67 74 77 72 66 63 62 74 71 71 70 72 75 77 76 76 74 71 72 71 72 73 70 64 68 69 65 45 32 27
66 53 64 69 57 58 61 64 67 73 80 81 83 71 78 88 82 71 67 64 73 77 80 82 81 80 82 82 82 83 81 80 74 61 64 66 66 65 61 63 62 73 48 34
77 67 81 82 78 71 81 78 72 82 90 89 87 87 92 94 80 64 60 70 76 82 87 89 88 77 60 47 42 40 42 55 68 71 58 49 46 42 47 53 52 54 67 73
88 87 79 85 85 74 71 72 84 97 99 96 87 85 91 92 80 73 73 78 82 87 93 74 52 53 51 52 55 58 57 52 45 39 39 48 54 66 52 43 36 41 50 58
83 46 78 74 80 82 66 65 82 99 99 99 99 89 95 92 85 84 84 87 90 91 89 78 69 72 56 39 37 26 20 19 20 20 15 9 11 26 32 36 46 40 28 34
Wind_Speed
8 8 9 8 8 8 11 13 17 17 23 31 29 30 19 5 9 15 18 22 25 27 29 29 29 33 40 42 37 34 33 30 27 26 25 26 26 26 26 25 24 24 24 24
8 10 8 9 9 10 12 14 15 21 20 28 26 21 3 12 15 18 24 27 29 29 28 27 24 31 36 40 33 31 27 26 24 23 23 22 22 23 23 23 23 24 24 24
8 7 8 9 10 11 12 14 15 20 26 21 21 6 3 12 17 19 26 26 28 27 25 23 18 23 29 28 20 18 19 22 21 20 19 19 20 19 20 20 22 23 23 25
6 7 9 9 11 11 12 11 16 21 22 10 18 6 2 4 7 21 23 25 26 23 23 21 19 17 12 11 12 15 15 18 17 18 18 18 18 18 19 20 21 21 24 23
7 9 9 10 10 10 12 13 18 22 16 13 6 4 5 11 15 19 19 21 22 20 19 20 18 15 15 15 14 14 15 16 16 16 18 19 19 19 20 19 19 22 23 23
7 8 9 9 10 11 12 13 19 10 6 2 5 3 2 8 16 14 17 18 19 18 17 16 17 18 17 15 13 13 14 16 18 18 19 20 20 20 20 20 20 22 22 24
8 10 11 10 10 8 8 15 6 4 3 4 7 11 4 10 11 12 14 16 17 17 19 20 21 20 21 21 20 17 16 17 18 19 21 21 22 21 21 21 21 22 22 22
4 5 4 4 5 7 13 4 1 4 2 5 17 7 4 9 11 12 13 18 19 20 25 23 23 24 24 25 25 23 22 22 21 21 22 23 24 23 23 22 22 22 22 22
4 4 7 10 11 9 4 3 3 5 6 4 5 6 11 6 14 12 14 16 21 29 21 22 21 22 24 24 24 24 23 25 25 23 24 24 23 23 22 21 21 21 22 22
4 7 8 6 7 7 9 6 2 3 2 4 7 10 9 7 7 10 17 21 22 18 20 20 21 22 23 23 23 23 22 21 22 23 25 25 23 22 22 21 21 21 21 22
9 6 7 11 7 9 8 7 6 5 5 3 3 7 9 8 8 21 23 16 14 18 23 26 25 23 22 22 22 21 21 21 22 22 23 24 23 22 22 21 22 22 21 22
7 7 8 12 15 15 15 12 10 5 4 7 4 15 6 10 13 29 25 16 14 19 25 30 28 26 25 24 22 21 21 22 22 22 23 23 22 22 22 22 23 23 23 24
9 5 7 7 8 6 10 8 11 14 15 18 4 9 8 11 23 28 26 20 17 19 25 30 29 26 26 25 23 23 23 24 24 24 25 25 24 23 23 22 23 24 24 25
15 13 13 12 8 16 23 25 21 19 13 14 31 37 33 30 28 27 20 22 24 24 29 31 28 25 25 26 26 25 24 24 24 24 24 24 24 24 24 23 23 24 25 25
13 18 18 23 26 25 30 32 30 32 34 23 32 35 33 30 25 23 23 22 24 28 31 34 29 27 28 27 25 25 25 25 25 24 24 24 24 25 25 25 25 25 26 26
18 16 21 35 23 14 23 24 25 31 37 38 32 27 15 17 22 22 21 26 28 29 34 34 32 31 29 29 28 26 24 25 25 25 26 27 27 26 26 27 27 27 27 27
21 15 13 13 12 21 25 17 17 20 14 21 28 20 22 22 19 19 28 33 33 35 36 35 33 33 31 30 26 25 24 24 24 25 26 28 28 27 28 29 29 29 29 29
19 18 10 16 15 3 6 12 17 25 21 16 22 21 21 15 20 28 40 39 33 37 37 35 35 32 30 29 26 24 22 22 23 24 25 26 26 26 27 27 28 29 29 29
14 15 9 6 8 23 20 11 10 7 17 25 21 17 15 19 28 41 34 32 35 40 39 35 32 30 27 26 26 26 25 24 23 24 26 28 29 28 29 29 28 27 27 27
10 13 15 6 5 5 10 20 20 24 27 12 6 12 23 33 45 43 37 40 37 35 32 28 27 25 24 24 24 24 24 24 26 26 27 28 29 30 31 31 32 28 25 25
12 14 24 22 12 17 25 23 21 10 9 13 16 23 41 42 42 39 41 39 36 32 27 23 22 23 24 23 23 23 24 25 28 29 29 28 31 30 29 27 27 30 30 28
17 12 14 13 11 14 7 8 15 21 22 21 32 48 49 42 39 43 39 37 34 25 20 20 21 23 25 26 26 26 28 28 28 28 29 30 29 28 29 29 28 27 28 29
19 29 23 22 23 25 26 26 36 37 41 43 42 42 45 38 40 40 39 36 25 21 20 21 22 23 25 27 29 30 31 31 30 29 29 29 28 29 30 32 32 32 30 29
28 30 36 37 41 38 33 33 33 36 39 42 46 46 39 44 41 39 35 26 22 20 21 23 24 23 21 21 23 27 29 32 34 34 33 33 33 33 33 34 34 33 32 32
33 31 41 47 45 48 44 34 24 22 32 41 46 44 41 43 39 38 24 23 22 22 23 21 20 20 22 24 27 32 37 38 37 35 37 39 41 41 39 40 40 39 37 37
41 42 47 56 44 39 39 36 38 45 45 46 48 45 40 38 37 27 25 22 24 25 24 22 22 26 29 32 34 38 41 44 45 45 44 43 44 46 45 47 48 45 43 42
Wind_Direction
239 247 251 264 271 275 282 289 295 298 296 301 317 314 326 357 341 336 330 328 323 313 309 301 287 271 269 275 279 273 268 269 271 274 277 281 284 284 284 285 286 287 287 290
241 256 273 280 286 290 295 300 298 309 304 312 315 338 17 0 337 333 337 342 336 331 323 311 287 266 260 269 282 273 267 268 271 274 277 280 283 284 283 281 284 286 287 291
266 278 284 283 288 296 302 305 309 310 317 321 321 31 355 350 348 337 330 343 341 340 335 330 321 284 275 271 261 249 262 269 273 276 279 281 284 285 282 281 283 286 288 295
292 288 284 288 292 300 304 305 309 310 320 320 318 289 100 8 300 328 342 346 354 353 3 5 3 359 357 334 309 295 287 271 272 277 277 283 286 288 288 289 286 283 289 294
282 296 290 287 295 299 298 311 312 308 314 320 310 305 163 290 319 345 345 350 1 12 11 7 6 6 357 346 332 316 306 294 282 279 286 294 297 296 297 294 289 291 292 291
283 286 286 283 286 294 305 315 315 311 318 346 207 351 328 319 342 351 351 354 359 7 3 356 349 343 339 338 330 321 312 304 302 300 295 297 298 299 301 298 295 295 295 294
300 284 279 276 287 301 320 330 334 345 350 225 239 304 213 309 328 346 357 357 357 357 350 343 338 336 336 339 340 333 315 301 297 300 299 302 301 303 302 300 297 298 297 301
291 295 323 305 291 302 320 354 78 224 289 289 284 237 230 309 329 328 333 339 340 343 332 322 319 320 321 322 321 316 311 306 301 301 305 307 306 304 302 300 299 300 298 299
296 278 297 293 292 301 306 303 257 268 283 303 267 292 306 253 328 311 326 326 324 327 341 341 326 315 315 317 319 315 311 310 309 306 306 310 304 299 299 299 297 295 293 293
287 295 303 319 305 290 261 263 258 257 10 291 289 287 253 287 296 322 320 313 318 337 346 343 337 332 327 324 322 321 320 315 309 304 304 305 301 295 298 300 296 292 288 289
314 285 287 299 280 283 262 251 232 234 225 208 297 264 249 262 300 322 326 322 330 341 345 343 337 330 329 326 321 320 318 318 315 312 311 310 304 300 299 297 294 289 285 285
303 287 287 287 297 284 275 261 235 215 223 238 262 280 237 242 295 324 318 311 315 330 343 345 336 332 327 325 324 322 318 316 316 315 316 315 310 304 301 299 297 293 290 289
312 291 313 288 284 273 261 262 248 231 254 241 193 264 249 253 304 312 300 298 299 318 332 338 336 330 331 324 317 316 315 313 314 313 312 312 313 310 305 302 298 297 295 294
295 271 252 250 260 293 285 283 274 241 238 246 249 277 275 282 293 291 280 279 291 308 324 330 329 326 323 323 322 312 308 307 308 310 311 307 305 306 305 303 301 298 297 297
287 279 283 282 283 281 275 268 263 256 253 249 278 285 301 300 295 293 302 306 304 310 315 321 320 316 316 315 312 310 306 303 305 307 307 307 307 305 303 301 301 299 297 296
291 286 297 296 305 289 284 274 263 254 259 265 284 291 316 295 291 305 319 316 314 313 317 320 320 321 315 314 308 307 305 304 305 302 304 306 305 306 306 303 300 298 297 295
287 291 310 292 300 302 292 296 274 261 269 269 261 307 299 296 303 310 323 316 313 321 325 323 320 319 318 319 312 305 303 303 302 301 301 300 303 305 304 302 302 299 297 295
272 285 293 287 324 252 275 296 281 286 293 267 289 292 291 291 301 319 326 316 319 317 315 312 314 316 316 317 313 306 305 302 300 300 297 297 297 298 296 295 296 297 296 296
259 247 265 263 289 290 305 306 308 260 289 301 293 281 279 290 306 316 321 315 305 311 315 315 317 319 320 320 318 317 311 307 303 306 313 310 306 301 296 295 295 294 293 294
255 232 228 232 252 259 282 293 299 295 297 289 270 290 304 304 307 312 308 315 312 315 316 315 316 321 325 327 328 324 321 315 310 311 312 311 306 304 298 295 296 293 292 293
243 244 236 243 249 269 296 288 290 273 287 265 284 295 304 303 307 306 308 312 314 314 313 317 321 325 329 331 330 328 324 318 314 313 313 310 304 309 309 301 300 297 293 292
270 269 248 230 229 266 278 285 294 298 284 284 293 299 298 304 301 308 309 311 311 308 307 309 316 325 328 328 327 327 324 322 319 316 314 311 309 306 309 308 302 298 297 293
250 283 273 257 269 284 280 281 294 291 284 287 289 293 299 296 298 304 307 307 301 297 304 311 312 312 315 315 315 315 313 312 313 312 312 310 309 307 306 305 304 297 292 291
271 277 265 271 273 284 283 276 283 287 276 278 282 287 292 296 299 300 303 298 293 292 298 303 308 312 315 318 322 321 321 317 314 310 306 304 307 309 309 307 305 298 297 294
271 268 274 273 275 289 291 293 292 278 280 284 287 291 292 294 297 301 299 294 293 293 295 295 293 297 301 305 310 311 311 310 308 309 308 304 296 295 294 296 298 297 296 292
278 294 282 283 292 288 290 285 279 274 275 277 282 288 291 291 298 291 296 299 295 293 291 294 298 308 314 313 311 311 311 309 307 306 307 305 299 292 289 286 286 289 290 290